timestamp,surface_pressure_avg,surface_temp_avg,battery_voltage,lat,long
2020-06-27 00:09:01+00:00,235.9431,14.5,13.21,47.84626,-54.09684
2020-06-27 00:19:01+00:00,239.9297,14.5,12.89,47.84626,-54.09684
2020-06-27 00:29:01+00:00,244.0914,14.5,12.89,47.84626,-54.09684
2020-06-27 00:39:01+00:00,249.3914,14.5,12.89,47.84626,-54.09684
2020-06-27 00:49:01+00:00,254.5181,14.5,12.89,47.84626,-54.09684
2020-06-27 00:59:01+00:00,258.9297,14.5,12.89,47.84626,-54.09684
2020-06-27 01:09:01+00:00,266.268,14.5,12.89,47.84626,-54.09684
2020-06-27 01:19:01+00:00,275.573,14.5,12.73,47.84626,-54.09684
2020-06-27 01:29:01+00:00,284.9581,14.5,12.73,47.84626,-54.09684
2020-06-27 01:39:01+00:00,293.7681,14.5,12.73,47.84626,-54.09684
2020-06-27 01:49:01+00:00,303.9713,14.25,12.73,47.84626,-54.09684
2020-06-27 01:59:01+00:00,314.3864,13.93,12.73,47.84626,-54.09684
2020-06-27 02:09:01+00:00,324.4646,13.99,12.73,47.84626,-54.09684
2020-06-27 02:19:01+00:00,333.9980000000001,13.9,12.73,47.84626,-54.09684
2020-06-27 02:29:01+00:00,340.5096,13.9,12.73,47.84626,-54.09684
2020-06-27 02:39:01+00:00,343.9263,13.9,12.73,47.84626,-54.09684
2020-06-27 02:49:01+00:00,347.76300000000015,13.9,12.73,47.84626,-54.09684
2020-06-27 02:59:01+00:00,351.5879,13.9,12.73,47.84626,-54.09684
2020-06-27 03:09:01+00:00,351.9613,13.9,12.73,47.84626,-54.09684
2020-06-27 03:19:01+00:00,352.0045,13.9,12.73,47.84626,-54.09684
2020-06-27 03:29:01+00:00,356.028,13.93,12.73,47.84626,-54.09684
2020-06-27 03:39:01+00:00,356.3996,13.97,12.73,47.84626,-54.09684
2020-06-27 03:49:01+00:00,358.358,14.0,12.73,47.84626,-54.09684
2020-06-27 03:59:01+00:00,359.9129,14.06,12.73,47.84626,-54.09684
2020-06-27 04:09:01+00:00,360.3497,14.1,12.73,47.84626,-54.09684
2020-06-27 04:19:01+00:00,356.2629,14.13,12.73,47.84626,-54.09684
2020-06-27 04:29:01+00:00,356.2513,14.2,12.73,47.84626,-54.09684
2020-06-27 04:39:01+00:00,357.99800000000016,14.2,12.73,47.84626,-54.09684
2020-06-27 04:49:01+00:00,352.3346,14.2,12.73,47.84626,-54.09684
2020-06-27 04:59:01+00:00,345.68300000000005,14.29,12.73,47.84626,-54.09684
2020-06-27 05:09:01+00:00,342.0496,14.35,12.73,47.84626,-54.09684
2020-06-27 05:19:01+00:00,339.1114,14.4,12.73,47.84626,-54.09684
2020-06-27 05:29:01+00:00,333.7645,14.4,12.73,47.84626,-54.09684
2020-06-27 05:39:01+00:00,329.5062,14.4,12.73,47.84626,-54.09684
2020-06-27 05:49:01+00:00,328.1613,14.4,12.73,47.84626,-54.09684
2020-06-27 05:59:01+00:00,322.8563,14.47,12.73,47.84626,-54.09684
2020-06-27 06:09:01+00:00,317.7313,14.5,12.73,47.84626,-54.09684
2020-06-27 06:19:01+00:00,315.3113,14.54,12.65,47.84626,-54.09684
2020-06-27 06:29:01+00:00,307.9813,14.59,12.65,47.84626,-54.09684
2020-06-27 06:39:01+00:00,296.0564,14.6,12.65,47.84626,-54.09684
2020-06-27 06:49:01+00:00,289.4764,14.6,12.65,47.84626,-54.09684
2020-06-27 06:59:01+00:00,288.308,14.6,12.65,47.84626,-54.09684
2020-06-27 07:09:01+00:00,280.1398,14.6,12.65,47.84626,-54.09684
2020-06-27 07:19:01+00:00,266.8714,14.66,12.65,47.84626,-54.09684
2020-06-27 07:29:01+00:00,259.1964,14.7,12.65,47.84626,-54.09684
2020-06-27 07:39:01+00:00,253.4114,14.7,12.65,47.84626,-54.09684
2020-06-27 07:49:01+00:00,244.7047,14.7,12.65,47.84626,-54.09684
2020-06-27 07:59:01+00:00,236.2014,14.7,12.65,47.84626,-54.09684
2020-06-27 08:09:01+00:00,233.5081,14.7,12.65,47.84626,-54.09684
2020-06-27 08:19:01+00:00,229.0147,14.7,12.65,47.84626,-54.09684
2020-06-27 08:29:01+00:00,221.9081,14.7,12.65,47.84626,-54.09684
2020-06-27 08:39:01+00:00,217.3015,14.7,12.65,47.84626,-54.09684
2020-06-27 08:49:01+00:00,216.3631,14.7,12.65,47.84626,-54.09684
2020-06-27 08:59:01+00:00,212.1981,14.69,12.65,47.84626,-54.09684
2020-06-27 09:09:01+00:00,210.6681,14.7,12.65,47.84626,-54.09684
2020-06-27 09:19:01+00:00,209.7215,14.7,12.65,47.84626,-54.09684
2020-06-27 09:29:01+00:00,207.0498,14.7,12.65,47.84626,-54.09684
2020-06-27 09:39:01+00:00,204.7431,14.76,12.65,47.84626,-54.09684
2020-06-27 09:49:01+00:00,205.8631,14.8,12.65,47.84626,-54.09684
2020-06-27 09:59:01+00:00,207.3531,14.8,12.65,47.84626,-54.09684
2020-06-27 10:09:01+00:00,206.2831,14.77,12.65,47.84626,-54.09684
2020-06-27 10:19:01+00:00,206.0865,14.76,12.65,47.84626,-54.09684
2020-06-27 10:29:01+00:00,210.5031,14.77,12.65,47.84626,-54.09684
2020-06-27 10:39:01+00:00,210.9464,14.7,12.65,47.84626,-54.09684
2020-06-27 10:49:01+00:00,207.6198,14.7,12.65,47.84626,-54.09684
2020-06-27 10:59:01+00:00,209.6564,14.75,12.65,47.84626,-54.09684
2020-06-27 11:09:01+00:00,215.2598,14.7,12.65,47.84626,-54.09684
2020-06-27 11:19:01+00:00,212.1831,14.7,12.81,47.84626,-54.09684
2020-06-27 11:29:01+00:00,207.6581,14.78,12.81,47.84626,-54.09684
2020-06-27 11:39:01+00:00,213.5481,14.8,12.81,47.84626,-54.09684
2020-06-27 11:49:01+00:00,220.0698,14.8,12.81,47.84626,-54.09684
2020-06-27 11:59:01+00:00,216.178,14.85,12.81,47.84626,-54.09684
2020-06-27 12:09:01+00:00,218.2314,15.0,12.81,47.84626,-54.09684
2020-06-27 12:19:01+00:00,225.3164,15.07,13.21,47.84626,-54.09684
2020-06-27 12:29:01+00:00,227.5148,15.25,13.21,47.84626,-54.09684
2020-06-27 12:39:01+00:00,227.8448,15.4,13.21,47.84626,-54.09684
2020-06-27 12:49:01+00:00,233.5614,15.35,13.21,47.84626,-54.09684
2020-06-27 12:59:01+00:00,241.0031,15.5,13.21,47.84626,-54.09684
2020-06-27 13:09:01+00:00,246.6464,15.6,13.21,47.84626,-54.09684
2020-06-27 13:19:01+00:00,250.9181,15.05,13.29,47.84626,-54.09684
2020-06-27 13:29:01+00:00,255.6614,13.8,13.29,47.84626,-54.09684
2020-06-27 13:39:01+00:00,262.4597,13.73,13.29,47.84626,-54.09684
2020-06-27 13:49:01+00:00,271.9098,13.6,13.29,47.84626,-54.09684
2020-06-27 13:59:01+00:00,279.1281,13.0,13.29,47.84626,-54.09684
2020-06-27 14:09:01+00:00,285.5865,13.15,13.29,47.84626,-54.09684
2020-06-27 14:19:01+00:00,293.3981,13.2,13.6,47.84626,-54.09684
2020-06-27 14:29:01+00:00,300.1931,13.1,13.6,47.84626,-54.09684
2020-06-27 14:39:01+00:00,306.1013,13.0,13.6,47.84626,-54.09684
2020-06-27 14:49:01+00:00,311.8147,13.0,13.6,47.84626,-54.09684
2020-06-27 14:59:01+00:00,321.923,13.0,13.6,47.84626,-54.09684
2020-06-27 15:09:01+00:00,330.2363,12.96,13.6,47.84626,-54.09684
2020-06-27 15:19:01+00:00,332.898,12.95,13.92,47.84626,-54.09684
2020-06-27 15:29:01+00:00,332.7630000000001,13.06,13.92,47.84626,-54.09684
2020-06-27 15:39:01+00:00,337.0313,13.0,13.92,47.84626,-54.09684
2020-06-27 15:49:01+00:00,338.968,12.96,13.92,47.84626,-54.09684
2020-06-27 15:59:01+00:00,338.2913,12.99,13.92,47.84626,-54.09684
2020-06-27 16:09:01+00:00,341.3447,12.99,13.92,47.84626,-54.09684
2020-06-27 16:19:01+00:00,341.338,13.0,14.08,47.84626,-54.09684
2020-06-27 16:29:01+00:00,337.8897,12.97,14.08,47.84626,-54.09684
2020-06-27 16:39:01+00:00,338.5497,12.92,14.08,47.84626,-54.09684
2020-06-27 16:49:01+00:00,341.8014,12.96,14.08,47.84626,-54.09684
2020-06-27 16:59:01+00:00,337.3264,13.02,14.08,47.84626,-54.09684
2020-06-27 17:09:01+00:00,332.2546,13.1,14.08,47.84626,-54.09684
2020-06-27 17:19:01+00:00,335.9829,13.0,14.16,47.84626,-54.09684
2020-06-27 17:29:01+00:00,335.668,13.03,14.16,47.84626,-54.09684
2020-06-27 17:39:01+00:00,329.2629,13.2,14.16,47.84626,-54.09684
2020-06-27 17:49:01+00:00,325.0812,13.2,14.16,47.84626,-54.09684
2020-06-27 17:59:01+00:00,321.0997,13.17,14.16,47.84626,-54.09684
2020-06-27 18:09:01+00:00,315.5847,13.15,14.16,47.84626,-54.09684
2020-06-27 18:19:01+00:00,314.1281,13.1,14.0,47.84626,-54.09684
2020-06-27 18:29:01+00:00,313.1813,12.9,14.0,47.84626,-54.09684
2020-06-27 18:39:01+00:00,305.2014,13.0,14.0,47.84626,-54.09684
2020-06-27 18:49:01+00:00,294.8331,13.37,14.0,47.84626,-54.09684
2020-06-27 18:59:01+00:00,291.928,13.43,14.0,47.84626,-54.09684
2020-06-27 19:09:01+00:00,286.1863,13.5,14.0,47.84626,-54.09684
2020-06-27 19:19:01+00:00,276.8081,13.79,13.68,47.84626,-54.09684
2020-06-27 19:29:01+00:00,270.4231,14.1,13.68,47.84626,-54.09684
2020-06-27 19:39:01+00:00,265.5782,14.0,13.68,47.84626,-54.09684
2020-06-27 19:49:01+00:00,255.6697,14.0,13.68,47.84626,-54.09684
2020-06-27 19:59:01+00:00,245.8314,14.46,13.68,47.84626,-54.09684
2020-06-27 20:09:01+00:00,240.8881,14.6,13.68,47.84626,-54.09684
2020-06-27 20:19:01+00:00,237.2897,14.3,13.53,47.84626,-54.09684
2020-06-27 20:29:01+00:00,230.2014,14.2,13.53,47.84626,-54.09684
2020-06-27 20:39:01+00:00,225.1081,14.79,13.53,47.84626,-54.09684
2020-06-27 20:49:01+00:00,220.5381,14.66,13.53,47.84626,-54.09684
2020-06-27 20:59:01+00:00,214.6014,14.3,13.53,47.84626,-54.09684
2020-06-27 21:09:01+00:00,209.6931,14.69,13.53,47.84626,-54.09684
2020-06-27 21:19:01+00:00,208.1848,14.97,13.6,47.84626,-54.09684
2020-06-27 21:29:01+00:00,209.0915,14.15,13.6,47.84626,-54.09684
2020-06-27 21:39:01+00:00,208.0514,13.34,13.6,47.84626,-54.09684
2020-06-27 21:49:01+00:00,208.9015,13.2,13.6,47.84626,-54.09684
2020-06-27 21:59:01+00:00,208.4448,13.28,13.6,47.84626,-54.09684
2020-06-27 22:09:01+00:00,205.5181,13.1,13.6,47.84626,-54.09684
2020-06-27 22:19:01+00:00,206.5681,12.9,13.21,47.84626,-54.09684
2020-06-27 22:29:01+00:00,208.9015,12.88,13.21,47.84626,-54.09684
2020-06-27 22:39:01+00:00,209.3448,12.96,13.21,47.84626,-54.09684
2020-06-27 22:49:01+00:00,211.4848,13.0,13.21,47.84626,-54.09684
2020-06-27 22:59:01+00:00,210.8264,13.06,13.21,47.84626,-54.09684
2020-06-27 23:09:01+00:00,208.5781,13.2,13.21,47.84626,-54.09684
2020-06-27 23:19:01+00:00,213.2964,13.2,12.89,47.84626,-54.09684
2020-06-27 23:29:01+00:00,219.0114,13.1,12.89,47.84626,-54.09684
2020-06-27 23:39:01+00:00,219.4181,13.1,12.89,47.84626,-54.09684
2020-06-27 23:49:01+00:00,222.058,13.1,12.89,47.84626,-54.09684
2020-06-27 23:59:01+00:00,227.7631,12.98,12.89,47.84626,-54.09684
